<?xml version='1.0' encoding='UTF-8'?>
<gpx xmlns="http://www.topografix.com/GPX/1/1" creator="www.balnam.be" version="1.1" xmlns:xsi="http://www.w3.org/2001/XMLSchema-instance" xsi:schemaLocation="http://www.topografix.com/GPX/1/1 http://www.topografix.com/GPX/1/1/gpx.xsd">
<trk>
<name>nhmsc1</name>
<cmt>v</cmt>
<desc>Scy Chemin n°1 Chemin de Mon Plaisir / Rue Mon Plaisir / Chemin n°1 / Rue Mon-Plaisir</desc>
<link href="https://chemins.be/scy/chemin/1"/><trkseg>
<trkpt lat="50.300136" lon="5.188598"><time>2026-05-06T17:50:20Z</time></trkpt>
<trkpt lat="50.300787" lon="5.190673"><time>2026-05-06T18:00:20Z</time></trkpt>
<trkpt lat="50.302918" lon="5.196844"><time>2026-05-06T18:10:20Z</time></trkpt>
<trkpt lat="50.306135" lon="5.204133"><time>2026-05-06T18:20:20Z</time></trkpt>
</trkseg></trk>
<trk>
<name>nhmsc1</name>
<cmt>r</cmt>
<desc>Scy Chemin n°1 Chemin de Mon Plaisir / Rue Mon Plaisir / Chemin n°1 / Rue Mon-Plaisir</desc>
<link href="https://chemins.be/scy/chemin/1"/><trkseg>
<trkpt lat="50.306135" lon="5.204133"><time>2026-05-06T18:20:20Z</time></trkpt>
<trkpt lat="50.306918" lon="5.205843"><time>2026-05-06T18:30:20Z</time></trkpt>
</trkseg>
</trk>
<trk>
<name>nhmsc11</name>
<cmt>v</cmt>
<desc>Scy Chemin n°11 11</desc>
<link href="https://chemins.be/scy/chemin/11"/><trkseg>
<trkpt lat="50.295976" lon="5.209482"><time>2026-05-06T17:50:20Z</time></trkpt>
<trkpt lat="50.295318" lon="5.209793"><time>2026-05-06T18:00:20Z</time></trkpt>
<trkpt lat="50.294316" lon="5.212765"><time>2026-05-06T18:10:20Z</time></trkpt>
<trkpt lat="50.293880" lon="5.213431"><time>2026-05-06T18:20:20Z</time></trkpt>
</trkseg>
</trk>
<trk>
<name>nhmsc12</name>
<cmt>r</cmt>
<desc>Scy Chemin n°12 Rue Hector Monjoie / Chemin n° 12</desc>
<link href="https://chemins.be/scy/chemin/12"/><trkseg>
<trkpt lat="50.307361" lon="5.209192"><time>2026-05-06T17:50:20Z</time></trkpt>
<trkpt lat="50.306890" lon="5.209703"><time>2026-05-06T18:00:20Z</time></trkpt>
<trkpt lat="50.306564" lon="5.211228"><time>2026-05-06T18:10:20Z</time></trkpt>
<trkpt lat="50.306113" lon="5.211416"><time>2026-05-06T18:20:20Z</time></trkpt>
</trkseg></trk>
<trk>
<name>nhmsc12</name>
<cmt>v</cmt>
<desc>Scy Chemin n°12 Rue Hector Monjoie / Chemin n° 12</desc>
<link href="https://chemins.be/scy/chemin/12"/><trkseg>
<trkpt lat="50.306113" lon="5.211416"><time>2026-05-06T18:20:20Z</time></trkpt>
<trkpt lat="50.305219" lon="5.211962"><time>2026-05-06T18:30:20Z</time></trkpt>
<trkpt lat="50.304783" lon="5.211294"><time>2026-05-06T18:40:20Z</time></trkpt>
<trkpt lat="50.303915" lon="5.211953"><time>2026-05-06T18:50:20Z</time></trkpt>
<trkpt lat="50.302735" lon="5.213546"><time>2026-05-06T19:00:20Z</time></trkpt>
<trkpt lat="50.302015" lon="5.212340"><time>2026-05-06T19:10:20Z</time></trkpt>
<trkpt lat="50.301128" lon="5.210794"><time>2026-05-06T19:20:20Z</time></trkpt>
</trkseg>
</trk>
<trk>
<name>nhmsc13</name>
<cmt>r</cmt>
<desc>Scy Chemin n°13 Rue des Scyoux</desc>
<link href="https://chemins.be/scy/chemin/13"/><trkseg>
<trkpt lat="50.311228" lon="5.218920"><time>2026-05-06T17:50:20Z</time></trkpt>
<trkpt lat="50.311124" lon="5.220856"><time>2026-05-06T18:00:20Z</time></trkpt>
<trkpt lat="50.309737" lon="5.223583"><time>2026-05-06T18:10:20Z</time></trkpt>
<trkpt lat="50.308984" lon="5.225816"><time>2026-05-06T18:20:20Z</time></trkpt>
<trkpt lat="50.307984" lon="5.228507"><time>2026-05-06T18:30:20Z</time></trkpt>
</trkseg></trk>
<trk>
<name>nhmsc13</name>
<cmt>v</cmt>
<desc>Scy Chemin n°13 Rue des Scyoux</desc>
<link href="https://chemins.be/scy/chemin/13"/><trkseg>
<trkpt lat="50.307984" lon="5.228507"><time>2026-05-06T18:30:20Z</time></trkpt>
<trkpt lat="50.307310" lon="5.232005"><time>2026-05-06T18:40:20Z</time></trkpt>
<trkpt lat="50.307092" lon="5.234738"><time>2026-05-06T18:50:20Z</time></trkpt>
</trkseg>
</trk>
<trk>
<name>nhmsc14</name>
<cmt>r</cmt>
<desc>Scy Chemin n°14 Rue des Marlières</desc>
<link href="https://chemins.be/scy/chemin/14"/><trkseg>
<trkpt lat="50.309135" lon="5.213730"><time>2026-05-06T17:50:20Z</time></trkpt>
<trkpt lat="50.309710" lon="5.213811"><time>2026-05-06T18:00:20Z</time></trkpt>
<trkpt lat="50.310028" lon="5.213395"><time>2026-05-06T18:10:20Z</time></trkpt>
<trkpt lat="50.310450" lon="5.213459"><time>2026-05-06T18:20:20Z</time></trkpt>
<trkpt lat="50.311495" lon="5.214376"><time>2026-05-06T18:30:20Z</time></trkpt>
<trkpt lat="50.315343" lon="5.217213"><time>2026-05-06T18:40:20Z</time></trkpt>
<trkpt lat="50.317948" lon="5.220894"><time>2026-05-06T18:50:20Z</time></trkpt>
</trkseg>
</trk>
<trk>
<name>nhmsc15</name>
<cmt>v</cmt>
<desc>Scy Chemin n°15 </desc>
<link href="https://chemins.be/scy/chemin/15"/><trkseg>
<trkpt lat="50.311177" lon="5.218540"><time>2026-05-06T17:50:20Z</time></trkpt>
<trkpt lat="50.311579" lon="5.218884"><time>2026-05-06T18:00:20Z</time></trkpt>
<trkpt lat="50.312553" lon="5.220952"><time>2026-05-06T18:10:20Z</time></trkpt>
<trkpt lat="50.313557" lon="5.223736"><time>2026-05-06T18:20:20Z</time></trkpt>
<trkpt lat="50.314270" lon="5.224605"><time>2026-05-06T18:30:20Z</time></trkpt>
<trkpt lat="50.315385" lon="5.225875"><time>2026-05-06T18:40:20Z</time></trkpt>
<trkpt lat="50.316295" lon="5.228068"><time>2026-05-06T18:50:20Z</time></trkpt>
<trkpt lat="50.317230" lon="5.230402"><time>2026-05-06T19:00:20Z</time></trkpt>
</trkseg>
</trk>
<trk>
<name>nhmsc16</name>
<cmt>v</cmt>
<desc>Scy Chemin n°16 Chemin n° 16</desc>
<link href="https://chemins.be/scy/chemin/16"/><trkseg>
<trkpt lat="50.319555" lon="5.197668"><time>2026-05-06T17:50:20Z</time></trkpt>
<trkpt lat="50.317947" lon="5.199943"><time>2026-05-06T18:00:20Z</time></trkpt>
<trkpt lat="50.316757" lon="5.201705"><time>2026-05-06T18:10:20Z</time></trkpt>
<trkpt lat="50.316544" lon="5.202516"><time>2026-05-06T18:20:20Z</time></trkpt>
<trkpt lat="50.315677" lon="5.203049"><time>2026-05-06T18:30:20Z</time></trkpt>
<trkpt lat="50.314540" lon="5.204854"><time>2026-05-06T18:40:20Z</time></trkpt>
<trkpt lat="50.314373" lon="5.206789"><time>2026-05-06T18:50:20Z</time></trkpt>
<trkpt lat="50.314165" lon="5.207038"><time>2026-05-06T19:00:20Z</time></trkpt>
</trkseg>
</trk>
<trk>
<name>nhmsc17</name>
<cmt>v</cmt>
<desc>Scy Chemin n°17 Scy/Chemin n° 17</desc>
<link href="https://chemins.be/scy/chemin/17"/><trkseg>
<trkpt lat="50.314192" lon="5.207052"><time>2026-05-06T17:50:20Z</time></trkpt>
<trkpt lat="50.314460" lon="5.207324"><time>2026-05-06T18:00:20Z</time></trkpt>
<trkpt lat="50.315321" lon="5.209416"><time>2026-05-06T18:10:20Z</time></trkpt>
<trkpt lat="50.317379" lon="5.211447"><time>2026-05-06T18:20:20Z</time></trkpt>
<trkpt lat="50.318337" lon="5.213150"><time>2026-05-06T18:30:20Z</time></trkpt>
<trkpt lat="50.318855" lon="5.213706"><time>2026-05-06T18:40:20Z</time></trkpt>
</trkseg>
</trk>
<trk>
<name>nhmsc18</name>
<cmt>r</cmt>
<desc>Scy Chemin n°18 Rue de la Vallée-du-Bocq</desc>
<link href="https://chemins.be/scy/chemin/18"/><trkseg>
<trkpt lat="50.312390" lon="5.205013"><time>2026-05-06T17:50:20Z</time></trkpt>
<trkpt lat="50.313144" lon="5.206458"><time>2026-05-06T18:00:20Z</time></trkpt>
<trkpt lat="50.313531" lon="5.207616"><time>2026-05-06T18:10:20Z</time></trkpt>
<trkpt lat="50.313684" lon="5.207577"><time>2026-05-06T18:20:20Z</time></trkpt>
<trkpt lat="50.313858" lon="5.207229"><time>2026-05-06T18:30:20Z</time></trkpt>
<trkpt lat="50.314156" lon="5.207038"><time>2026-05-06T18:40:20Z</time></trkpt>
</trkseg>
</trk>
<trk>
<name>nhmsc19</name>
<cmt>b</cmt>
<desc>Scy Chemin n°19 </desc>
<link href="https://chemins.be/scy/chemin/19"/><trkseg>
<trkpt lat="50.314115" lon="5.195270"><time>2026-05-06T17:50:20Z</time></trkpt>
<trkpt lat="50.314048" lon="5.194539"><time>2026-05-06T18:00:20Z</time></trkpt>
<trkpt lat="50.314443" lon="5.193324"><time>2026-05-06T18:10:20Z</time></trkpt>
</trkseg>
</trk>
<trk>
<name>nhmsc1bis</name>
<cmt>r</cmt>
<desc>Scy Chemin n°1bis Rue des Scyoux</desc>
<link href="https://chemins.be/scy/chemin/1bis"/><trkseg>
<trkpt lat="50.308622" lon="5.212626"><time>2026-05-06T17:50:20Z</time></trkpt>
<trkpt lat="50.309019" lon="5.212422"><time>2026-05-06T18:00:20Z</time></trkpt>
<trkpt lat="50.309224" lon="5.212693"><time>2026-05-06T18:10:20Z</time></trkpt>
<trkpt lat="50.309041" lon="5.213125"><time>2026-05-06T18:20:20Z</time></trkpt>
<trkpt lat="50.308914" lon="5.213305"><time>2026-05-06T18:30:20Z</time></trkpt>
</trkseg>
</trk>
<trk>
<name>nhmsc21</name>
<cmt>r</cmt>
<desc>Scy Chemin n°21 Thier de Huy</desc>
<link href="https://chemins.be/scy/chemin/21"/><trkseg>
<trkpt lat="50.318934" lon="5.194034"><time>2026-05-06T17:50:20Z</time></trkpt>
<trkpt lat="50.319361" lon="5.194575"><time>2026-05-06T18:00:20Z</time></trkpt>
<trkpt lat="50.320844" lon="5.193464"><time>2026-05-06T18:10:20Z</time></trkpt>
<trkpt lat="50.323466" lon="5.195124"><time>2026-05-06T18:20:20Z</time></trkpt>
<trkpt lat="50.325254" lon="5.195324"><time>2026-05-06T18:30:20Z</time></trkpt>
</trkseg>
</trk>
<trk>
<name>nhmsc23</name>
<cmt>q</cmt>
<desc>Scy Chemin n°23 </desc>
<link href="https://chemins.be/scy/chemin/23"/><trkseg>
<trkpt lat="50.308470" lon="5.212497"><time>2026-05-06T17:50:20Z</time></trkpt>
<trkpt lat="50.308108" lon="5.212841"><time>2026-05-06T18:00:20Z</time></trkpt>
<trkpt lat="50.307991" lon="5.215585"><time>2026-05-06T18:10:20Z</time></trkpt>
<trkpt lat="50.308340" lon="5.216445"><time>2026-05-06T18:20:20Z</time></trkpt>
<trkpt lat="50.307717" lon="5.219218"><time>2026-05-06T18:30:20Z</time></trkpt>
</trkseg>
</trk>
<trk>
<name>nhmsc24</name>
<cmt>v</cmt>
<desc>Scy Chemin n°24 Scy/Chemin n° 24 (closed)</desc>
<link href="https://chemins.be/scy/chemin/24"/><trkseg>
<trkpt lat="50.308257" lon="5.212058"><time>2026-05-06T17:50:20Z</time></trkpt>
<trkpt lat="50.308809" lon="5.211886"><time>2026-05-06T18:00:20Z</time></trkpt>
<trkpt lat="50.309097" lon="5.211553"><time>2026-05-06T18:10:20Z</time></trkpt>
<trkpt lat="50.309302" lon="5.211387"><time>2026-05-06T18:20:20Z</time></trkpt>
<trkpt lat="50.309823" lon="5.211559"><time>2026-05-06T18:30:20Z</time></trkpt>
<trkpt lat="50.310248" lon="5.211731"><time>2026-05-06T18:40:20Z</time></trkpt>
<trkpt lat="50.310395" lon="5.211843"><time>2026-05-06T18:50:20Z</time></trkpt>
</trkseg>
</trk>
<trk>
<name>nhmsc28</name>
<cmt>v</cmt>
<desc>Scy Chemin n°28 Scy/Chemin n° 28</desc>
<link href="https://chemins.be/scy/chemin/28"/><trkseg>
<trkpt lat="50.302707" lon="5.203803"><time>2026-05-06T17:50:20Z</time></trkpt>
<trkpt lat="50.302453" lon="5.202830"><time>2026-05-06T18:00:20Z</time></trkpt>
<trkpt lat="50.301986" lon="5.201446"><time>2026-05-06T18:10:20Z</time></trkpt>
<trkpt lat="50.302142" lon="5.201042"><time>2026-05-06T18:20:20Z</time></trkpt>
</trkseg>
</trk>
<trk>
<name>nhmsc29</name>
<cmt>v</cmt>
<desc>Scy Sentier n°29 </desc>
<link href="https://chemins.be/scy/sentier/29"/><trkseg>
<trkpt lat="50.303084" lon="5.208808"><time>2026-05-06T17:50:20Z</time></trkpt>
<trkpt lat="50.300390" lon="5.208339"><time>2026-05-06T18:00:20Z</time></trkpt>
</trkseg></trk>
<trk>
<name>nhmsc29</name>
<cmt>d</cmt>
<desc>Scy Sentier n°29 </desc>
<link href="https://chemins.be/scy/sentier/29"/><trkseg>
<trkpt lat="50.300390" lon="5.208339"><time>2026-05-06T18:00:20Z</time></trkpt>
<trkpt lat="50.299842" lon="5.208315"><time>2026-05-06T18:10:20Z</time></trkpt>
<trkpt lat="50.298726" lon="5.208408"><time>2026-05-06T18:20:20Z</time></trkpt>
<trkpt lat="50.296924" lon="5.209007"><time>2026-05-06T18:30:20Z</time></trkpt>
</trkseg>
</trk>
<trk>
<name>nhmsc3</name>
<cmt>r</cmt>
<desc>Scy Chemin n°3 Chemin de Mohiville</desc>
<link href="https://chemins.be/scy/chemin/3"/><trkseg>
<trkpt lat="50.306945" lon="5.205857"><time>2026-05-06T17:50:20Z</time></trkpt>
<trkpt lat="50.307436" lon="5.204982"><time>2026-05-06T18:00:20Z</time></trkpt>
<trkpt lat="50.308131" lon="5.204699"><time>2026-05-06T18:10:20Z</time></trkpt>
<trkpt lat="50.309959" lon="5.203074"><time>2026-05-06T18:20:20Z</time></trkpt>
<trkpt lat="50.310905" lon="5.201547"><time>2026-05-06T18:30:20Z</time></trkpt>
</trkseg></trk>
<trk>
<name>nhmsc3</name>
<cmt>v</cmt>
<desc>Scy Chemin n°3 Chemin de Mohiville</desc>
<link href="https://chemins.be/scy/chemin/3"/><trkseg>
<trkpt lat="50.310905" lon="5.201547"><time>2026-05-06T18:30:20Z</time></trkpt>
<trkpt lat="50.311993" lon="5.200274"><time>2026-05-06T18:40:20Z</time></trkpt>
<trkpt lat="50.313607" lon="5.197101"><time>2026-05-06T18:50:20Z</time></trkpt>
<trkpt lat="50.313808" lon="5.195448"><time>2026-05-06T19:00:20Z</time></trkpt>
<trkpt lat="50.314141" lon="5.195313"><time>2026-05-06T19:10:20Z</time></trkpt>
<trkpt lat="50.315495" lon="5.194578"><time>2026-05-06T19:20:20Z</time></trkpt>
<trkpt lat="50.316140" lon="5.193543"><time>2026-05-06T19:30:20Z</time></trkpt>
<trkpt lat="50.316359" lon="5.193518"><time>2026-05-06T19:40:20Z</time></trkpt>
<trkpt lat="50.316597" lon="5.193611"><time>2026-05-06T19:50:20Z</time></trkpt>
<trkpt lat="50.317010" lon="5.194294"><time>2026-05-06T20:00:20Z</time></trkpt>
<trkpt lat="50.317142" lon="5.194323"><time>2026-05-06T20:10:20Z</time></trkpt>
</trkseg>
</trk>
<trk>
<name>nhmsc30</name>
<cmt>v</cmt>
<desc>Scy Sentier n°30 </desc>
<link href="https://chemins.be/scy/sentier/30"/><trkseg>
<trkpt lat="50.307458" lon="5.209404"><time>2026-05-06T17:50:20Z</time></trkpt>
<trkpt lat="50.307856" lon="5.209131"><time>2026-05-06T18:00:20Z</time></trkpt>
<trkpt lat="50.308055" lon="5.208980"><time>2026-05-06T18:10:20Z</time></trkpt>
<trkpt lat="50.308306" lon="5.209054"><time>2026-05-06T18:20:20Z</time></trkpt>
</trkseg></trk>
<trk>
<name>nhmsc30</name>
<cmt>d</cmt>
<desc>Scy Sentier n°30 </desc>
<link href="https://chemins.be/scy/sentier/30"/><trkseg>
<trkpt lat="50.308306" lon="5.209054"><time>2026-05-06T18:20:20Z</time></trkpt>
<trkpt lat="50.309576" lon="5.208796"><time>2026-05-06T18:30:20Z</time></trkpt>
</trkseg></trk>
<trk>
<name>nhmsc30</name>
<cmt>v</cmt>
<desc>Scy Sentier n°30 </desc>
<link href="https://chemins.be/scy/sentier/30"/><trkseg>
<trkpt lat="50.309576" lon="5.208796"><time>2026-05-06T18:30:20Z</time></trkpt>
<trkpt lat="50.310386" lon="5.208586"><time>2026-05-06T18:40:20Z</time></trkpt>
<trkpt lat="50.310489" lon="5.208026"><time>2026-05-06T18:50:20Z</time></trkpt>
</trkseg></trk>
<trk>
<name>nhmsc30</name>
<cmt>d</cmt>
<desc>Scy Sentier n°30 </desc>
<link href="https://chemins.be/scy/sentier/30"/><trkseg>
<trkpt lat="50.310489" lon="5.208026"><time>2026-05-06T18:50:20Z</time></trkpt>
<trkpt lat="50.311457" lon="5.208492"><time>2026-05-06T19:00:20Z</time></trkpt>
<trkpt lat="50.313324" lon="5.207725"><time>2026-05-06T19:10:20Z</time></trkpt>
<trkpt lat="50.313397" lon="5.207530"><time>2026-05-06T19:20:20Z</time></trkpt>
</trkseg>
</trk>
<trk>
<name>nhmsc31</name>
<cmt>v</cmt>
<desc>Scy Sentier n°31 Scy/Sentier n° 31 (closed)</desc>
<link href="https://chemins.be/scy/sentier/31"/><trkseg>
<trkpt lat="50.309351" lon="5.211193"><time>2026-05-06T17:50:20Z</time></trkpt>
<trkpt lat="50.309782" lon="5.210077"><time>2026-05-06T18:00:20Z</time></trkpt>
<trkpt lat="50.310341" lon="5.208613"><time>2026-05-06T18:10:20Z</time></trkpt>
</trkseg>
</trk>
<trk>
<name>nhmsc32</name>
<cmt>d</cmt>
<desc>Scy Sentier n°32 </desc>
<link href="https://chemins.be/scy/sentier/32"/><trkseg>
<trkpt lat="50.310435" lon="5.211802"><time>2026-05-06T17:50:20Z</time></trkpt>
<trkpt lat="50.311010" lon="5.211812"><time>2026-05-06T18:00:20Z</time></trkpt>
<trkpt lat="50.311442" lon="5.211834"><time>2026-05-06T18:10:20Z</time></trkpt>
<trkpt lat="50.311955" lon="5.211660"><time>2026-05-06T18:20:20Z</time></trkpt>
<trkpt lat="50.312460" lon="5.211571"><time>2026-05-06T18:30:20Z</time></trkpt>
</trkseg>
</trk>
<trk>
<name>nhmsc33</name>
<cmt>v</cmt>
<desc>Scy Sentier n°33 </desc>
<link href="https://chemins.be/scy/sentier/33"/><trkseg>
<trkpt lat="50.310100" lon="5.213340"><time>2026-05-06T17:50:20Z</time></trkpt>
<trkpt lat="50.310301" lon="5.212965"><time>2026-05-06T18:00:20Z</time></trkpt>
</trkseg></trk>
<trk>
<name>nhmsc33</name>
<cmt>b</cmt>
<desc>Scy Sentier n°33 </desc>
<link href="https://chemins.be/scy/sentier/33"/><trkseg>
<trkpt lat="50.310301" lon="5.212965"><time>2026-05-06T18:00:20Z</time></trkpt>
<trkpt lat="50.310765" lon="5.212102"><time>2026-05-06T18:10:20Z</time></trkpt>
</trkseg></trk>
<trk>
<name>nhmsc33</name>
<cmt>d</cmt>
<desc>Scy Sentier n°33 </desc>
<link href="https://chemins.be/scy/sentier/33"/><trkseg>
<trkpt lat="50.310765" lon="5.212102"><time>2026-05-06T18:10:20Z</time></trkpt>
<trkpt lat="50.310921" lon="5.211782"><time>2026-05-06T18:20:20Z</time></trkpt>
</trkseg>
</trk>
<trk>
<name>nhmsc34</name>
<cmt>v</cmt>
<desc>Scy Sentier n°34 Sentier n° 34 [VP]</desc>
<link href="https://chemins.be/scy/sentier/34"/><trkseg>
<trkpt lat="50.310951" lon="5.206139"><time>2026-05-06T17:50:20Z</time></trkpt>
<trkpt lat="50.310494" lon="5.207462"><time>2026-05-06T18:00:20Z</time></trkpt>
<trkpt lat="50.310395" lon="5.208696"><time>2026-05-06T18:10:20Z</time></trkpt>
<trkpt lat="50.310948" lon="5.209930"><time>2026-05-06T18:20:20Z</time></trkpt>
<trkpt lat="50.310957" lon="5.210533"><time>2026-05-06T18:30:20Z</time></trkpt>
<trkpt lat="50.311308" lon="5.211719"><time>2026-05-06T18:40:20Z</time></trkpt>
<trkpt lat="50.311424" lon="5.214318"><time>2026-05-06T18:50:20Z</time></trkpt>
<trkpt lat="50.311316" lon="5.215496"><time>2026-05-06T19:00:20Z</time></trkpt>
<trkpt lat="50.311450" lon="5.216874"><time>2026-05-06T19:10:20Z</time></trkpt>
<trkpt lat="50.311526" lon="5.218771"><time>2026-05-06T19:20:20Z</time></trkpt>
</trkseg>
</trk>
<trk>
<name>nhmsc35</name>
<cmt>d</cmt>
<desc>Scy Sentier n°35 </desc>
<link href="https://chemins.be/scy/sentier/35"/><trkseg>
<trkpt lat="50.306202" lon="5.211530"><time>2026-05-06T17:50:20Z</time></trkpt>
<trkpt lat="50.306527" lon="5.213866"><time>2026-05-06T18:00:20Z</time></trkpt>
<trkpt lat="50.305672" lon="5.215185"><time>2026-05-06T18:10:20Z</time></trkpt>
<trkpt lat="50.305486" lon="5.215996"><time>2026-05-06T18:20:20Z</time></trkpt>
<trkpt lat="50.303453" lon="5.218613"><time>2026-05-06T18:30:20Z</time></trkpt>
<trkpt lat="50.302364" lon="5.220053"><time>2026-05-06T18:40:20Z</time></trkpt>
</trkseg></trk>
<trk>
<name>nhmsc35</name>
<cmt>v</cmt>
<desc>Scy Sentier n°35 </desc>
<link href="https://chemins.be/scy/sentier/35"/><trkseg>
<trkpt lat="50.302364" lon="5.220053"><time>2026-05-06T18:40:20Z</time></trkpt>
<trkpt lat="50.301056" lon="5.221756"><time>2026-05-06T18:50:20Z</time></trkpt>
</trkseg></trk>
<trk>
<name>nhmsc35</name>
<cmt>d</cmt>
<desc>Scy Sentier n°35 </desc>
<link href="https://chemins.be/scy/sentier/35"/><trkseg>
<trkpt lat="50.301056" lon="5.221756"><time>2026-05-06T18:50:20Z</time></trkpt>
<trkpt lat="50.300330" lon="5.222726"><time>2026-05-06T19:00:20Z</time></trkpt>
</trkseg>
</trk>
<trk>
<name>nhmsc37</name>
<cmt>d</cmt>
<desc>Scy Sentier n°37 </desc>
<link href="https://chemins.be/scy/sentier/37"/><trkseg>
<trkpt lat="50.305625" lon="5.206775"><time>2026-05-06T17:50:20Z</time></trkpt>
<trkpt lat="50.305060" lon="5.205319"><time>2026-05-06T18:00:20Z</time></trkpt>
<trkpt lat="50.304548" lon="5.202825"><time>2026-05-06T18:10:20Z</time></trkpt>
<trkpt lat="50.302768" lon="5.200211"><time>2026-05-06T18:20:20Z</time></trkpt>
<trkpt lat="50.301131" lon="5.197390"><time>2026-05-06T18:30:20Z</time></trkpt>
</trkseg>
</trk>
<trk>
<name>nhmsc39</name>
<cmt>v</cmt>
<desc>Scy Sentier n°39 </desc>
<link href="https://chemins.be/scy/sentier/39"/><trkseg>
<trkpt lat="50.307719" lon="5.219265"><time>2026-05-06T17:50:20Z</time></trkpt>
<trkpt lat="50.308497" lon="5.223490"><time>2026-05-06T18:00:20Z</time></trkpt>
<trkpt lat="50.309046" lon="5.225817"><time>2026-05-06T18:10:20Z</time></trkpt>
</trkseg>
</trk>
<trk>
<name>nhmsc4</name>
<cmt>r</cmt>
<desc>Scy Chemin n°4 Rue de Ry / ?</desc>
<link href="https://chemins.be/scy/chemin/4"/><trkseg>
<trkpt lat="50.310109" lon="5.193446"><time>2026-05-06T17:50:20Z</time></trkpt>
<trkpt lat="50.310292" lon="5.198012"><time>2026-05-06T18:00:20Z</time></trkpt>
<trkpt lat="50.310887" lon="5.201504"><time>2026-05-06T18:10:20Z</time></trkpt>
<trkpt lat="50.311459" lon="5.203297"><time>2026-05-06T18:20:20Z</time></trkpt>
</trkseg></trk>
<trk>
<name>nhmsc4</name>
<cmt>v</cmt>
<desc>Scy Chemin n°4 Rue de Ry / ?</desc>
<link href="https://chemins.be/scy/chemin/4"/><trkseg>
<trkpt lat="50.311459" lon="5.203297"><time>2026-05-06T18:20:20Z</time></trkpt>
<trkpt lat="50.311381" lon="5.204152"><time>2026-05-06T18:30:20Z</time></trkpt>
<trkpt lat="50.310999" lon="5.205873"><time>2026-05-06T18:40:20Z</time></trkpt>
</trkseg>
</trk>
<trk>
<name>nhmsc40</name>
<cmt>d</cmt>
<desc>Scy Sentier n°40 </desc>
<link href="https://chemins.be/scy/sentier/40"/><trkseg>
<trkpt lat="50.307505" lon="5.231138"><time>2026-05-06T17:50:20Z</time></trkpt>
<trkpt lat="50.304204" lon="5.237423"><time>2026-05-06T18:00:20Z</time></trkpt>
</trkseg>
</trk>
<trk>
<name>nhmsc41</name>
<cmt>v</cmt>
<desc>Scy Sentier n°41 </desc>
<link href="https://chemins.be/scy/sentier/41"/><trkseg>
<trkpt lat="50.302328" lon="5.237552"><time>2026-05-06T17:50:20Z</time></trkpt>
<trkpt lat="50.302050" lon="5.234796"><time>2026-05-06T18:00:20Z</time></trkpt>
<trkpt lat="50.301740" lon="5.234739"><time>2026-05-06T18:10:20Z</time></trkpt>
</trkseg>
</trk>
<trk>
<name>nhmsc42</name>
<cmt>r</cmt>
<desc>Scy Sentier n°42 Rue de la Vallée du Bocq</desc>
<link href="https://chemins.be/scy/sentier/42"/><trkseg>
<trkpt lat="50.312535" lon="5.204861"><time>2026-05-06T17:50:20Z</time></trkpt>
<trkpt lat="50.313619" lon="5.204150"><time>2026-05-06T18:00:20Z</time></trkpt>
<trkpt lat="50.314113" lon="5.202979"><time>2026-05-06T18:10:20Z</time></trkpt>
<trkpt lat="50.314818" lon="5.201250"><time>2026-05-06T18:20:20Z</time></trkpt>
<trkpt lat="50.314938" lon="5.198261"><time>2026-05-06T18:30:20Z</time></trkpt>
<trkpt lat="50.315845" lon="5.195932"><time>2026-05-06T18:40:20Z</time></trkpt>
<trkpt lat="50.316190" lon="5.195419"><time>2026-05-06T18:50:20Z</time></trkpt>
<trkpt lat="50.316832" lon="5.194910"><time>2026-05-06T19:00:20Z</time></trkpt>
<trkpt lat="50.317114" lon="5.194438"><time>2026-05-06T19:10:20Z</time></trkpt>
</trkseg>
</trk>
<trk>
<name>nhmsc43</name>
<cmt>s</cmt>
<desc>Scy Sentier n°43 </desc>
<link href="https://chemins.be/scy/sentier/43"/><trkseg>
<trkpt lat="50.319717" lon="5.197573"><time>2026-05-06T17:50:20Z</time></trkpt>
<trkpt lat="50.320700" lon="5.193377"><time>2026-05-06T18:00:20Z</time></trkpt>
<trkpt lat="50.320294" lon="5.192359"><time>2026-05-06T18:10:20Z</time></trkpt>
<trkpt lat="50.320503" lon="5.192081"><time>2026-05-06T18:20:20Z</time></trkpt>
<trkpt lat="50.320761" lon="5.189965"><time>2026-05-06T18:30:20Z</time></trkpt>
</trkseg>
</trk>
<trk>
<name>nhmsc44</name>
<cmt>d</cmt>
<desc>Scy Sentier n°44 </desc>
<link href="https://chemins.be/scy/sentier/44"/><trkseg>
<trkpt lat="50.320076" lon="5.198983"><time>2026-05-06T17:50:20Z</time></trkpt>
<trkpt lat="50.319723" lon="5.204313"><time>2026-05-06T18:00:20Z</time></trkpt>
<trkpt lat="50.319715" lon="5.206644"><time>2026-05-06T18:10:20Z</time></trkpt>
</trkseg></trk>
<trk>
<name>nhmsc44</name>
<cmt>v</cmt>
<desc>Scy Sentier n°44 </desc>
<link href="https://chemins.be/scy/sentier/44"/><trkseg>
<trkpt lat="50.319715" lon="5.206644"><time>2026-05-06T18:10:20Z</time></trkpt>
<trkpt lat="50.320479" lon="5.209213"><time>2026-05-06T18:20:20Z</time></trkpt>
<trkpt lat="50.320584" lon="5.210872"><time>2026-05-06T18:30:20Z</time></trkpt>
</trkseg>
</trk>
<trk>
<name>nhmsc45</name>
<cmt>s</cmt>
<desc>Scy Sentier n°45 </desc>
<link href="https://chemins.be/scy/sentier/45"/><trkseg>
<trkpt lat="50.319036" lon="5.193502"><time>2026-05-06T17:50:20Z</time></trkpt>
<trkpt lat="50.319163" lon="5.192156"><time>2026-05-06T18:00:20Z</time></trkpt>
</trkseg>
</trk>
<trk>
<name>nhmsc46</name>
<cmt>s</cmt>
<desc>Scy Sentier n°46 </desc>
<link href="https://chemins.be/scy/sentier/46"/><trkseg>
<trkpt lat="50.319055" lon="5.193461"><time>2026-05-06T17:50:20Z</time></trkpt>
<trkpt lat="50.320294" lon="5.192373"><time>2026-05-06T18:00:20Z</time></trkpt>
</trkseg>
</trk>
<trk>
<name>nhmsc6</name>
<cmt>r</cmt>
<desc>Scy Chemin n°6 Rue Piron / ?</desc>
<link href="https://chemins.be/scy/chemin/6"/><trkseg>
<trkpt lat="50.322479" lon="5.188549"><time>2026-05-06T17:50:20Z</time></trkpt>
<trkpt lat="50.325370" lon="5.195508"><time>2026-05-06T18:00:20Z</time></trkpt>
<trkpt lat="50.327899" lon="5.201594"><time>2026-05-06T18:10:20Z</time></trkpt>
</trkseg></trk>
<trk>
<name>nhmsc6</name>
<cmt>v</cmt>
<desc>Scy Chemin n°6 Rue Piron / ?</desc>
<link href="https://chemins.be/scy/chemin/6"/><trkseg>
<trkpt lat="50.327899" lon="5.201594"><time>2026-05-06T18:10:20Z</time></trkpt>
<trkpt lat="50.330148" lon="5.208640"><time>2026-05-06T18:20:20Z</time></trkpt>
<trkpt lat="50.331944" lon="5.213869"><time>2026-05-06T18:30:20Z</time></trkpt>
</trkseg>
</trk>
<trk>
<name>nhmsc7</name>
<cmt>v</cmt>
<desc>Scy Chemin n°7 </desc>
<link href="https://chemins.be/scy/chemin/7"/><trkseg>
<trkpt lat="50.299345" lon="5.212293"><time>2026-05-06T17:50:20Z</time></trkpt>
<trkpt lat="50.296368" lon="5.214907"><time>2026-05-06T18:00:20Z</time></trkpt>
<trkpt lat="50.294676" lon="5.216392"><time>2026-05-06T18:10:20Z</time></trkpt>
<trkpt lat="50.293910" lon="5.216603"><time>2026-05-06T18:20:20Z</time></trkpt>
<trkpt lat="50.293757" lon="5.219099"><time>2026-05-06T18:30:20Z</time></trkpt>
<trkpt lat="50.294001" lon="5.220184"><time>2026-05-06T18:40:20Z</time></trkpt>
<trkpt lat="50.294078" lon="5.220775"><time>2026-05-06T18:50:20Z</time></trkpt>
<trkpt lat="50.293860" lon="5.220995"><time>2026-05-06T19:00:20Z</time></trkpt>
<trkpt lat="50.293056" lon="5.220265"><time>2026-05-06T19:10:20Z</time></trkpt>
<trkpt lat="50.292768" lon="5.220372"><time>2026-05-06T19:20:20Z</time></trkpt>
</trkseg>
</trk>
<trk>
<name>nhmsc8</name>
<cmt>v</cmt>
<desc>Scy Chemin n°8 Chemin n° 10 / Chemin n° 8</desc>
<link href="https://chemins.be/scy/chemin/8"/><trkseg>
<trkpt lat="50.316141" lon="5.193549"><time>2026-05-06T17:50:20Z</time></trkpt>
<trkpt lat="50.315610" lon="5.193625"><time>2026-05-06T18:00:20Z</time></trkpt>
<trkpt lat="50.314443" lon="5.193380"><time>2026-05-06T18:10:20Z</time></trkpt>
<trkpt lat="50.313412" lon="5.192871"><time>2026-05-06T18:20:20Z</time></trkpt>
<trkpt lat="50.312819" lon="5.192138"><time>2026-05-06T18:30:20Z</time></trkpt>
</trkseg></trk>
<trk>
<name>nhmsc8</name>
<cmt>d</cmt>
<desc>Scy Chemin n°8 Chemin n° 10 / Chemin n° 8</desc>
<link href="https://chemins.be/scy/chemin/8"/><trkseg>
<trkpt lat="50.312819" lon="5.192138"><time>2026-05-06T18:30:20Z</time></trkpt>
<trkpt lat="50.311959" lon="5.192355"><time>2026-05-06T18:40:20Z</time></trkpt>
<trkpt lat="50.310759" lon="5.192951"><time>2026-05-06T18:50:20Z</time></trkpt>
<trkpt lat="50.310047" lon="5.193290"><time>2026-05-06T19:00:20Z</time></trkpt>
</trkseg></trk>
<trk>
<name>nhmsc8</name>
<cmt>v</cmt>
<desc>Scy Chemin n°8 Chemin n° 10 / Chemin n° 8</desc>
<link href="https://chemins.be/scy/chemin/8"/><trkseg>
<trkpt lat="50.310047" lon="5.193290"><time>2026-05-06T19:00:20Z</time></trkpt>
<trkpt lat="50.307746" lon="5.194373"><time>2026-05-06T19:10:20Z</time></trkpt>
<trkpt lat="50.306259" lon="5.196102"><time>2026-05-06T19:20:20Z</time></trkpt>
<trkpt lat="50.302918" lon="5.196872"><time>2026-05-06T19:30:20Z</time></trkpt>
<trkpt lat="50.302008" lon="5.197151"><time>2026-05-06T19:40:20Z</time></trkpt>
</trkseg></trk>
<trk>
<name>nhmsc8</name>
<cmt>d</cmt>
<desc>Scy Chemin n°8 Chemin n° 10 / Chemin n° 8</desc>
<link href="https://chemins.be/scy/chemin/8"/><trkseg>
<trkpt lat="50.302008" lon="5.197151"><time>2026-05-06T19:40:20Z</time></trkpt>
<trkpt lat="50.300955" lon="5.197344"><time>2026-05-06T19:50:20Z</time></trkpt>
<trkpt lat="50.298898" lon="5.198248"><time>2026-05-06T20:00:20Z</time></trkpt>
<trkpt lat="50.298319" lon="5.198799"><time>2026-05-06T20:10:20Z</time></trkpt>
<trkpt lat="50.298054" lon="5.199342"><time>2026-05-06T20:20:20Z</time></trkpt>
</trkseg></trk>
<trk>
<name>nhmsc8</name>
<cmt>v</cmt>
<desc>Scy Chemin n°8 Chemin n° 10 / Chemin n° 8</desc>
<link href="https://chemins.be/scy/chemin/8"/><trkseg>
<trkpt lat="50.298054" lon="5.199342"><time>2026-05-06T20:20:20Z</time></trkpt>
<trkpt lat="50.296155" lon="5.202102"><time>2026-05-06T20:30:20Z</time></trkpt>
<trkpt lat="50.293961" lon="5.204247"><time>2026-05-06T20:40:20Z</time></trkpt>
<trkpt lat="50.293046" lon="5.205627"><time>2026-05-06T20:50:20Z</time></trkpt>
</trkseg>
</trk>
<trk>
<name>nhmsc9</name>
<cmt>v</cmt>
<desc>Scy Chemin n°9 Scy/Chemin n° 9 / Scy/Chemin n° 9 (closed)</desc>
<link href="https://chemins.be/scy/chemin/9"/><trkseg>
<trkpt lat="50.304723" lon="5.207152"><time>2026-05-06T17:50:20Z</time></trkpt>
<trkpt lat="50.303597" lon="5.205040"><time>2026-05-06T18:00:20Z</time></trkpt>
<trkpt lat="50.303064" lon="5.204175"><time>2026-05-06T18:10:20Z</time></trkpt>
<trkpt lat="50.302617" lon="5.203718"><time>2026-05-06T18:20:20Z</time></trkpt>
<trkpt lat="50.301634" lon="5.202872"><time>2026-05-06T18:30:20Z</time></trkpt>
<trkpt lat="50.300257" lon="5.201936"><time>2026-05-06T18:40:20Z</time></trkpt>
<trkpt lat="50.298663" lon="5.199718"><time>2026-05-06T18:50:20Z</time></trkpt>
<trkpt lat="50.298019" lon="5.199314"><time>2026-05-06T19:00:20Z</time></trkpt>
<trkpt lat="50.296103" lon="5.195673"><time>2026-05-06T19:10:20Z</time></trkpt>
</trkseg>
</trk>
<trk>
<name>nhmsci1</name>
<cmt>v</cmt>
<desc>Scy Sentier n°i1 Scy/Chemin n° 8 [VP] / Scy/Sentier n° i1</desc>
<link href="https://chemins.be/scy/sentier/i1"/><trkseg>
<trkpt lat="50.293920" lon="5.204168"><time>2026-05-06T17:50:20Z</time></trkpt>
<trkpt lat="50.293644" lon="5.205758"><time>2026-05-06T18:00:20Z</time></trkpt>
<trkpt lat="50.295960" lon="5.207990"><time>2026-05-06T18:10:20Z</time></trkpt>
<trkpt lat="50.296601" lon="5.208918"><time>2026-05-06T18:20:20Z</time></trkpt>
</trkseg>
</trk>
<trk>
<name>nhmsci10</name>
<cmt>v</cmt>
<desc>Scy Chemin n°i10 Chemin n° i10</desc>
<link href="https://chemins.be/scy/chemin/i10"/><trkseg>
<trkpt lat="50.299975" lon="5.226479"><time>2026-05-06T17:50:20Z</time></trkpt>
<trkpt lat="50.299107" lon="5.227305"><time>2026-05-06T18:00:20Z</time></trkpt>
<trkpt lat="50.297533" lon="5.230622"><time>2026-05-06T18:10:20Z</time></trkpt>
</trkseg>
</trk>
<trk>
<name>nhmsci11</name>
<cmt>v</cmt>
<desc>Scy Chemin n°i11 </desc>
<link href="https://chemins.be/scy/chemin/i11"/><trkseg>
<trkpt lat="50.296863" lon="5.229628"><time>2026-05-06T17:50:20Z</time></trkpt>
<trkpt lat="50.295511" lon="5.231831"><time>2026-05-06T18:00:20Z</time></trkpt>
<trkpt lat="50.295511" lon="5.232375"><time>2026-05-06T18:10:20Z</time></trkpt>
</trkseg>
</trk>
<trk>
<name>nhmsci12</name>
<cmt>v</cmt>
<desc>Scy Chemin n°i12 </desc>
<link href="https://chemins.be/scy/chemin/i12"/><trkseg>
<trkpt lat="50.300743" lon="5.229428"><time>2026-05-06T17:50:20Z</time></trkpt>
<trkpt lat="50.299729" lon="5.231831"><time>2026-05-06T18:00:20Z</time></trkpt>
<trkpt lat="50.298925" lon="5.228970"><time>2026-05-06T18:10:20Z</time></trkpt>
<trkpt lat="50.298171" lon="5.231649"><time>2026-05-06T18:20:20Z</time></trkpt>
</trkseg></trk>
<trk>
<name>nhmsci12</name>
<cmt>s</cmt>
<desc>Scy Chemin n°i12 </desc>
<link href="https://chemins.be/scy/chemin/i12"/><trkseg>
<trkpt lat="50.298171" lon="5.231649"><time>2026-05-06T18:20:20Z</time></trkpt>
<trkpt lat="50.297980" lon="5.232407"><time>2026-05-06T18:30:20Z</time></trkpt>
<trkpt lat="50.299145" lon="5.233530"><time>2026-05-06T18:40:20Z</time></trkpt>
<trkpt lat="50.301178" lon="5.235618"><time>2026-05-06T18:50:20Z</time></trkpt>
</trkseg>
</trk>
<trk>
<name>nhmsci2</name>
<cmt>v</cmt>
<desc>Scy Chemin n°i2 </desc>
<link href="https://chemins.be/scy/chemin/i2"/><trkseg>
<trkpt lat="50.300787" lon="5.190659"><time>2026-05-06T17:50:20Z</time></trkpt>
<trkpt lat="50.298826" lon="5.193250"><time>2026-05-06T18:00:20Z</time></trkpt>
</trkseg>
</trk>
<trk>
<name>nhmsci3</name>
<cmt>v</cmt>
<desc>Scy Sentier n°i3 </desc>
<link href="https://chemins.be/scy/sentier/i3"/><trkseg>
<trkpt lat="50.300395" lon="5.196379"><time>2026-05-06T17:50:20Z</time></trkpt>
<trkpt lat="50.298163" lon="5.199260"><time>2026-05-06T18:00:20Z</time></trkpt>
</trkseg>
</trk>
<trk>
<name>nhmsci4</name>
<cmt>v</cmt>
<desc>Scy Chemin n°i4 Scy/Chemin n° i4</desc>
<link href="https://chemins.be/scy/chemin/i4"/><trkseg>
<trkpt lat="50.302204" lon="5.200906"><time>2026-05-06T17:50:20Z</time></trkpt>
<trkpt lat="50.302515" lon="5.200531"><time>2026-05-06T18:00:20Z</time></trkpt>
<trkpt lat="50.300410" lon="5.196310"><time>2026-05-06T18:10:20Z</time></trkpt>
<trkpt lat="50.298808" lon="5.193264"><time>2026-05-06T18:20:20Z</time></trkpt>
</trkseg>
</trk>
<trk>
<name>nhmsci5</name>
<cmt>v</cmt>
<desc>Scy Chemin n°i5 Chemin n° i5</desc>
<link href="https://chemins.be/scy/chemin/i5"/><trkseg>
<trkpt lat="50.292839" lon="5.220500"><time>2026-05-06T17:50:20Z</time></trkpt>
<trkpt lat="50.292972" lon="5.220671"><time>2026-05-06T18:00:20Z</time></trkpt>
<trkpt lat="50.293913" lon="5.222386"><time>2026-05-06T18:10:20Z</time></trkpt>
<trkpt lat="50.294559" lon="5.225008"><time>2026-05-06T18:20:20Z</time></trkpt>
<trkpt lat="50.295922" lon="5.227868"><time>2026-05-06T18:30:20Z</time></trkpt>
<trkpt lat="50.296891" lon="5.229585"><time>2026-05-06T18:40:20Z</time></trkpt>
<trkpt lat="50.297549" lon="5.230572"><time>2026-05-06T18:50:20Z</time></trkpt>
<trkpt lat="50.297576" lon="5.231087"><time>2026-05-06T19:00:20Z</time></trkpt>
<trkpt lat="50.298161" lon="5.231659"><time>2026-05-06T19:10:20Z</time></trkpt>
</trkseg>
</trk>
<trk>
<name>nhmsci6</name>
<cmt>v</cmt>
<desc>Scy Sentier n°i6 Scy/Sentier n° i6 (closed)</desc>
<link href="https://chemins.be/scy/sentier/i6"/><trkseg>
<trkpt lat="50.304160" lon="5.199504"><time>2026-05-06T17:50:20Z</time></trkpt>
<trkpt lat="50.302556" lon="5.200606"><time>2026-05-06T18:00:20Z</time></trkpt>
</trkseg>
</trk>
<trk>
<name>nhmsci7</name>
<cmt>v</cmt>
<desc>Scy Chemin n°i7 Chemin du Bois de la Bouchire</desc>
<link href="https://chemins.be/scy/chemin/i7"/><trkseg>
<trkpt lat="50.296263" lon="5.214983"><time>2026-05-06T17:50:20Z</time></trkpt>
<trkpt lat="50.296827" lon="5.217343"><time>2026-05-06T18:00:20Z</time></trkpt>
<trkpt lat="50.299799" lon="5.224498"><time>2026-05-06T18:10:20Z</time></trkpt>
<trkpt lat="50.299997" lon="5.226426"><time>2026-05-06T18:20:20Z</time></trkpt>
<trkpt lat="50.300717" lon="5.229488"><time>2026-05-06T18:30:20Z</time></trkpt>
</trkseg></trk>
<trk>
<name>nhmsci7</name>
<cmt>s</cmt>
<desc>Scy Chemin n°i7 Chemin du Bois de la Bouchire</desc>
<link href="https://chemins.be/scy/chemin/i7"/><trkseg>
<trkpt lat="50.300717" lon="5.229488"><time>2026-05-06T18:30:20Z</time></trkpt>
<trkpt lat="50.301042" lon="5.230193"><time>2026-05-06T18:40:20Z</time></trkpt>
<trkpt lat="50.300823" lon="5.232997"><time>2026-05-06T18:50:20Z</time></trkpt>
<trkpt lat="50.300421" lon="5.233741"><time>2026-05-06T19:00:20Z</time></trkpt>
<trkpt lat="50.301220" lon="5.235073"><time>2026-05-06T19:10:20Z</time></trkpt>
<trkpt lat="50.301245" lon="5.235481"><time>2026-05-06T19:20:20Z</time></trkpt>
<trkpt lat="50.300960" lon="5.236189"><time>2026-05-06T19:30:20Z</time></trkpt>
</trkseg>
</trk>
<trk>
<name>nhmsci8</name>
<cmt>q</cmt>
<desc>Scy Sentier n°i8 i8</desc>
<link href="https://chemins.be/scy/sentier/i8"/><trkseg>
<trkpt lat="50.296154" lon="5.215073"><time>2026-05-06T17:50:20Z</time></trkpt>
<trkpt lat="50.295397" lon="5.213125"><time>2026-05-06T18:00:20Z</time></trkpt>
<trkpt lat="50.295064" lon="5.213007"><time>2026-05-06T18:10:20Z</time></trkpt>
<trkpt lat="50.294769" lon="5.213394"><time>2026-05-06T18:20:20Z</time></trkpt>
<trkpt lat="50.294059" lon="5.213434"><time>2026-05-06T18:30:20Z</time></trkpt>
<trkpt lat="50.293814" lon="5.213471"><time>2026-05-06T18:40:20Z</time></trkpt>
</trkseg>
</trk>
<trk>
<name>nhmsci9</name>
<cmt>v</cmt>
<desc>Scy Chemin n°i9 </desc>
<link href="https://chemins.be/scy/chemin/i9"/><trkseg>
<trkpt lat="50.328065" lon="5.202214"><time>2026-05-06T17:50:20Z</time></trkpt>
<trkpt lat="50.327120" lon="5.202849"><time>2026-05-06T18:00:20Z</time></trkpt>
<trkpt lat="50.327594" lon="5.204337"><time>2026-05-06T18:10:20Z</time></trkpt>
</trkseg>
</trk>
</gpx>